TimeCST,TemperatureF,Dew PointF,Humidity,Sea Level PressureIn,VisibilityMPH,Wind Direction,Wind SpeedMPH,Gust SpeedMPH,PrecipitationIn,Events,Conditions,WindDirDegrees,DateUTC
12:54 AM,33.1,15.1,48,30.13,10.0,SSW,13.8,-,N/A,,Clear,200,2012-12-12 06:54:00
1:54 AM,32.0,14.0,48,30.12,10.0,South,11.5,-,N/A,,Clear,190,2012-12-12 07:54:00
2:54 AM,30.9,15.1,52,30.14,10.0,SSW,11.5,-,N/A,,Clear,200,2012-12-12 08:54:00
3:54 AM,30.9,15.1,52,30.14,10.0,SSW,12.7,-,N/A,,Clear,200,2012-12-12 09:54:00
4:54 AM,28.9,15.1,56,30.14,10.0,South,10.4,-,N/A,,Clear,190,2012-12-12 10:54:00
5:54 AM,27.0,15.1,61,30.14,10.0,South,9.2,-,N/A,,Clear,180,2012-12-12 11:54:00
7:54 AM,28.9,12.9,51,30.17,10.0,South,12.7,-,N/A,,Clear,190,2012-12-12 13:54:00
8:54 AM,33.1,12.0,42,30.19,10.0,South,20.7,-,N/A,,Clear,190,2012-12-12 14:54:00
9:54 AM,37.9,12.9,36,30.19,10.0,SSW,18.4,24.2,N/A,,Clear,200,2012-12-12 15:54:00
10:54 AM,43.0,12.0,28,30.17,10.0,South,18.4,-,N/A,,Clear,180,2012-12-12 16:54:00
11:54 AM,46.0,12.9,26,30.15,10.0,South,16.1,-,N/A,,Clear,190,2012-12-12 17:54:00
12:54 PM,50.0,14.0,24,30.12,10.0,South,21.9,31.1,N/A,,Clear,190,2012-12-12 18:54:00
1:54 PM,51.1,14.0,23,30.09,10.0,South,20.7,28.8,N/A,,Clear,180,2012-12-12 19:54:00
2:54 PM,52.0,14.0,22,30.08,10.0,South,17.3,29.9,N/A,,Clear,180,2012-12-12 20:54:00
3:54 PM,51.1,15.1,24,30.07,10.0,South,20.7,28.8,N/A,,Clear,170,2012-12-12 21:54:00
4:54 PM,48.0,15.1,27,30.07,10.0,South,15.0,24.2,N/A,,Clear,180,2012-12-12 22:54:00
5:54 PM,45.0,16.0,31,30.09,10.0,South,12.7,-,N/A,,Clear,170,2012-12-12 23:54:00
6:54 PM,41.0,16.0,36,30.10,10.0,South,11.5,-,N/A,,Clear,170,2012-12-13 00:54:00
7:54 PM,39.9,17.1,40,30.09,10.0,South,13.8,-,N/A,,Clear,170,2012-12-13 01:54:00
8:54 PM,39.9,17.1,40,30.09,10.0,South,16.1,-,N/A,,Clear,170,2012-12-13 02:54:00
9:54 PM,41.0,17.1,38,30.11,10.0,South,16.1,-,N/A,,Clear,180,2012-12-13 03:54:00
10:54 PM,41.0,16.0,36,30.10,10.0,South,17.3,-,N/A,,Clear,170,2012-12-13 04:54:00
11:54 PM,41.0,16.0,36,30.09,10.0,South,18.4,27.6,N/A,,Clear,170,2012-12-13 05:54:00